#timestamp,LO_Frequency,Hit 
1504465215.3,286047002.4,N
1504465235.1,286047004.2,N
1504465255.9,286047005.9,P
1504465275.7,286047004.7,N
1504465295.5,286047005.4,P
1504465315.4,286047001.4,N
1504465335.2,286047001.6,N
1504465355.0,286047003.8,N
1504465355.9,286047003.8,N
1504465375.8,286047005.2,P
1504465395.6,286047000.8,N
1504465415.4,286047002.3,N
1504465435.3,286046999.7,N
1504465455.1,286047001.8,N
1504465456.0,286047001.8,N
1504465475.8,286047003.9,N
1504465495.7,286047003.5,N
1504465515.5,286047002.8,N
1504465535.3,286046999.8,N
1504465555.1,286046999.9,N
1504465575.9,286047001.5,N
1504465595.7,286047001.9,N
1504465615.5,286047004.3,N
1504465635.4,286047001.5,N
1504465655.2,286047001.3,N
1504465675.0,286047003.9,N
1504465675.9,286047003.9,N
1504465695.8,286047005.2,P
1504465715.6,286047004.7,P
1504465735.4,286047003.2,N
1504465755.3,286047001.6,N
1504465775.1,286047003.8,N
1504465795.8,286047003.9,P
1504465815.7,286046999.4,N
1504465835.5,286046997.1,N
1504465855.3,286046997.7,N
1504465875.2,286046994.9,N
1504465895.0,286046997.6,N
1504465895.9,286046997.6,N
1504465915.7,286046999.6,N
1504465935.6,286046997.1,N
1504465955.4,286046998.9,N
1504465975.2,286046996.6,N
1504465995.1,286046996.6,N
1504465996.0,286046996.6,N
1504466015.8,286046997.2,N
1504466035.6,286046999.5,N
1504466055.5,286046999.9,N
1504466075.3,286046998.1,N
1504466095.1,286046998.1,N
1504466115.9,286047000.5,N
1504466135.7,286047004.0,N
1504466155.5,286047000.6,N
1504466175.3,286047001.1,N
1504466195.2,286047004.0,N
1504466215.0,286047003.7,N
1504466215.9,286047003.7,N
1504466235.7,286047007.4,N
1504466255.6,286047003.3,N
1504466275.4,286047005.4,N
1504466295.2,286047001.6,N
1504466315.1,286047005.9,N
1504466316.0,286047005.9,N
1504466335.8,286047005.6,N
1504466355.6,286047005.0,N
1504466375.5,286047005.4,N
1504466395.3,286047005.1,N
1504466415.1,286047007.6,N
1504466435.9,286047005.9,N
1504466455.7,286047004.5,N
1504466475.5,286047004.5,N
1504466495.4,286047002.9,N
1504466515.2,286047004.2,N
1504466535.0,286047005.8,N
1504466535.9,286047005.8,N
1504466555.8,286047005.1,N
1504466575.6,286047008.9,P
1504466595.4,286047004.4,N
1504466615.3,286047004.0,N
1504466635.1,286047000.1,N
1504466636.0,286047000.1,N
1504466655.8,286046998.3,N
1504466675.7,286047001.4,N
1504466695.5,286047003.4,N
1504466715.3,286047001.8,N
1504466735.2,286047002.2,N
1504466755.9,286047001.5,N
1504466775.7,286047001.8,N
1504466795.5,286047002.2,N
1504466815.4,286047002.5,N
1504466835.2,286047002.0,N
1504466855.0,286047005.2,N
1504466855.9,286047005.2,N
1504466875.8,286047003.5,N
1504466895.6,286047006.0,N
1504466915.4,286047005.2,N
1504466935.3,286047003.9,N
1504466955.1,286047001.3,N
1504466956.0,286047001.3,N
1504466975.8,286047004.4,N
1504466995.7,286047005.8,N
1504467015.5,286047003.3,N
1504467035.3,286047006.9,P
1504467055.2,286047004.0,N
1504467075.9,286047003.9,N
1504467095.7,286047003.3,N
1504467115.6,286047004.4,P
1504467135.4,286046998.8,P
1504467155.2,286046998.7,N
1504467175.1,286046999.3,N
1504467176.0,286046999.3,N
1504467195.8,286046996.6,N
1504467215.6,286047000.8,N
1504467235.5,286047001.0,N
1504467255.3,286047002.7,N
1504467275.1,286047001.7,N
1504467295.9,286047000.4,N
1504467315.7,286047000.1,N
1504467335.5,286047004.8,N
1504467355.3,286047006.3,N
1504467375.2,286047005.7,N
1504467395.0,286047004.4,N
1504467395.9,286047004.4,N
1504467415.7,286046999.7,N
1504467435.6,286047000.4,N
1504467455.4,286046999.7,N
1504467475.2,286047003.2,N
1504467495.1,286047004.1,N
1504467496.0,286047004.1,N
1504467515.8,286047000.1,N
1504467535.6,286046999.3,N
1504467555.5,286046999.3,N
1504467575.3,286046997.0,N
1504467595.1,286046998.5,N
1504467615.9,286047003.9,N
1504467635.7,286047006.0,N
1504467655.5,286047004.3,N
1504467675.4,286047002.5,N
1504467695.2,286047000.0,N
1504467715.0,286046999.9,N
1504467715.9,286046999.9,N
1504467735.7,286047001.4,N
1504467755.6,286047005.5,N
1504467775.4,286047007.0,N
1504467795.2,286047004.6,N
1504467815.1,286047007.4,N
1504467816.0,286047007.4,N
1504467835.8,286047005.4,N
1504467855.6,286047004.6,N
1504467875.5,286047005.1,N
1504467895.3,286047002.9,N
1504467915.1,286047002.5,N
1504467935.9,286047001.6,N
1504467955.7,286047005.6,N
1504467975.5,286047005.2,N
1504467995.4,286047008.6,P
1504468015.2,286047003.6,N
1504468035.0,286047004.8,N
1504468035.9,286047004.8,N
1504468055.8,286047003.1,N
1504468075.6,286047004.6,N
1504468095.4,286047006.3,P
1504468115.3,286047002.0,N
1504468135.1,286047002.1,N
1504468155.8,286047001.9,N
1504468175.7,286047003.1,N
1504468195.5,286047003.7,N
1504468215.3,286047004.2,N
1504468235.2,286047006.0,P
1504468255.0,286047000.3,N
1504468255.9,286047000.3,N
1504468275.7,286047000.2,N
1504468295.6,286046998.3,N
1504468315.4,286047001.0,N
1504468335.2,286047000.9,N
1504468355.1,286046998.8,N
1504468356.0,286046998.8,N
1504468375.8,286046998.4,N
1504468395.6,286047000.2,N
1504468415.5,286046998.6,N
1504468435.3,286047001.1,N
1504468455.1,286047000.1,N
1504468475.9,286046998.3,N
1504468495.7,286046999.7,N
1504468515.5,286047001.4,N
1504468535.3,286047004.4,N
1504468555.2,286047001.4,N
1504468575.0,286047004.8,N
1504468575.9,286047004.8,N
1504468595.7,286047003.5,N
1504468615.6,286047001.4,N
1504468635.4,286047003.4,N
1504468655.2,286047003.9,N
1504468675.1,286047003.8,N
1504468676.0,286047003.8,N
1504468695.8,286047005.7,N
1504468715.6,286047003.6,N
1504468735.5,286046999.9,N
1504468755.3,286047000.8,N
1504468775.1,286047004.4,N
1504468795.9,286047004.0,N
